Location: Gajan
(43.0218°N, 1.1244°E)
Time: 03:02:39
(UTC+00:00)

Cosmos 44 Rocket - Pass Details

Date: 22 April 2021
Orbit: 636 x 754 km, 65.1° (Epoch: 15 May)

Event Time Altitude Azimuth Distance (km) Brightness Sun altitude
Enters shadow 20:09:59 - 184° (S) 3,105 6.4 -14.6°
Exits shadow 20:12:07 - 176° (S) 2,339 5.7 -14.9°
Reaches altitude 10° 20:12:34 10° 174° (S) 2,185 5.5 -15.0°
Maximum altitude 20:16:56 31° 113° (ESE) 1,262 4.1 -15.6°
Drops below altitude 10° 20:21:27 10° 52° (NE) 2,256 5.8 -16.3°
Sets 20:24:04 0° 42° (NE) 3,196 6.7 -16.7°
